When you browse on this site, cookies collect data to enhance your experience and personalize the content and advertising you see.
Visit our Privacy Policy to learn more. By continuing to use the site, you agree to this use of cookies and data.
  • Em Portugal
  • Lista de países
  • Para 7 dias
  • Temperatura da água
  • Mapas de satélite
  • Mapa do tempo
  • Widgets de tempo
  • user-avatar
    Iniciar Sessão

    Previsão horária em Vitebsk

    Hoje, 26 Maio, Domingo

    Tempo Temperatura Precipitação Vento Pressão Humidade
    00:00 +12°C° 0 mm 2 m/s 740 mmHg 92%
    01:00 +10°C° 0 mm 2 m/s 740 mmHg 93%
    02:00 +10°C° 0 mm 2 m/s 740 mmHg 94%
    03:00 +10°C° 0 mm 2 m/s 740 mmHg 94%
    04:00 +9°C° 0 mm 2 m/s 741 mmHg 93%
    05:00 +9°C° 0 mm 2 m/s 741 mmHg 93%
    06:00 +12°C° 0 mm 2 m/s 741 mmHg 87%
    07:00 +13°C° 0 mm 2 m/s 741 mmHg 80%
    08:00 +14°C° 0 mm 2 m/s 741 mmHg 74%
    09:00 +15°C° 0 mm 2 m/s 741 mmHg 71%
    10:00 +16°C° 0 mm 3 m/s 741 mmHg 69%
    11:00 +16°C° 0 mm 3 m/s 741 mmHg 66%
    12:00 +17°C° 0 mm 4 m/s 741 mmHg 63%
    13:00 +17°C° 0 mm 4 m/s 741 mmHg 61%
    14:00 +18°C° 0 mm 4 m/s 741 mmHg 58%
    15:00 +18°C° 0 mm 4 m/s 741 mmHg 59%
    16:00 +18°C° 0 mm 4 m/s 740 mmHg 60%
    17:00 +18°C° 0 mm 4 m/s 740 mmHg 60%
    18:00 +15°C° 0 mm 4 m/s 740 mmHg 66%
    19:00 +14°C° 0 mm 4 m/s 740 mmHg 71%
    20:00 +13°C° 0 mm 4 m/s 740 mmHg 76%
    21:00 +12°C° 0 mm 4 m/s 741 mmHg 80%
    22:00 +11°C° 0 mm 3 m/s 741 mmHg 83%
    23:00 +10°C° 0 mm 3 m/s 741 mmHg 86%

    Amanhã, 27 Maio, Segunda-feira

    Tempo Temperatura Precipitação Vento Pressão Humidade
    00:00 +9°C° 0 mm 3 m/s 741 mmHg 88%
    01:00 +9°C° 0 mm 3 m/s 741 mmHg 91%
    02:00 +7°C° 0 mm 4 m/s 741 mmHg 93%
    03:00 +8°C° 0 mm 4 m/s 741 mmHg 89%
    04:00 +10°C° 0 mm 4 m/s 741 mmHg 86%
    05:00 +10°C° 0 mm 4 m/s 741 mmHg 82%
    06:00 +10°C° 0 mm 5 m/s 741 mmHg 80%
    07:00 +12°C° 0 mm 5 m/s 741 mmHg 79%
    08:00 +13°C° 0 mm 5 m/s 741 mmHg 78%
    09:00 +15°C° 0 mm 5 m/s 742 mmHg 75%
    10:00 +16°C° 0 mm 6 m/s 742 mmHg 72%
    11:00 +19°C° 0 mm 6 m/s 742 mmHg 69%
    12:00 +20°C° 0.1 mm 6 m/s 742 mmHg 68%
    13:00 +21°C° 0.1 mm 7 m/s 742 mmHg 66%
    14:00 +21°C° 0.1 mm 7 m/s 742 mmHg 65%
    15:00 +21°C° 0.4 mm 6 m/s 742 mmHg 68%
    16:00 +21°C° 0.4 mm 5 m/s 741 mmHg 71%
    17:00 +21°C° 0.4 mm 4 m/s 741 mmHg 74%
    18:00 +20°C° 0.2 mm 4 m/s 741 mmHg 78%
    19:00 +19°C° 0.2 mm 4 m/s 742 mmHg 81%
    20:00 +17°C° 0.2 mm 3 m/s 742 mmHg 85%
    21:00 +17°C° 0 mm 3 m/s 742 mmHg 88%
    22:00 +16°C° 0 mm 3 m/s 742 mmHg 90%
    23:00 +16°C° 0 mm 3 m/s 742 mmHg 93%

    Depois de amanhã, 28 Maio, Terça-feira

    Tempo Temperatura Precipitação Vento Pressão Humidade
    00:00 +14°C° 0 mm 3 m/s 743 mmHg 94%
    01:00 +14°C° 0 mm 3 m/s 743 mmHg 95%
    02:00 +14°C° 0 mm 3 m/s 743 mmHg 96%
    03:00 +14°C° 0 mm 3 m/s 743 mmHg 96%
    04:00 +15°C° 0 mm 2 m/s 743 mmHg 96%
    05:00 +15°C° 0 mm 2 m/s 743 mmHg 97%
    06:00 +17°C° 0 mm 2 m/s 743 mmHg 91%
    07:00 +18°C° 0 mm 2 m/s 743 mmHg 86%
    08:00 +20°C° 0 mm 3 m/s 743 mmHg 81%
    09:00 +21°C° 0.2 mm 3 m/s 743 mmHg 77%
    10:00 +22°C° 0.2 mm 4 m/s 743 mmHg 72%
    11:00 +25°C° 0.2 mm 5 m/s 743 mmHg 68%
    12:00 +23°C° 0.8 mm 4 m/s 743 mmHg 75%
    13:00 +22°C° 0.8 mm 4 m/s 742 mmHg 82%
    14:00 +21°C° 0.8 mm 3 m/s 742 mmHg 88%
    15:00 +21°C° 1.4 mm 4 m/s 742 mmHg 88%
    16:00 +21°C° 1.4 mm 4 m/s 741 mmHg 87%
    17:00 +21°C° 1.4 mm 5 m/s 741 mmHg 87%
    18:00 +21°C° 0.6 mm 4 m/s 741 mmHg 88%
    19:00 +20°C° 0.6 mm 4 m/s 741 mmHg 89%
    20:00 +20°C° 0.6 mm 3 m/s 741 mmHg 90%
    21:00 +20°C° 0.2 mm 4 m/s 742 mmHg 89%
    22:00 +19°C° 0.2 mm 4 m/s 742 mmHg 89%
    23:00 +19°C° 0.2 mm 4 m/s 742 mmHg 89%

    29 Maio, Quarta-feira

    Tempo Temperatura Precipitação Vento Pressão Humidade
    00:00 +18°C° 0 mm 4 m/s 742 mmHg 90%
    01:00 +18°C° 0 mm 4 m/s 742 mmHg 90%
    02:00 +17°C° 0 mm 4 m/s 742 mmHg 91%
    03:00 +18°C° 0 mm 4 m/s 742 mmHg 91%
    04:00 +17°C° 0 mm 5 m/s 742 mmHg 91%
    05:00 +17°C° 0 mm 5 m/s 742 mmHg 91%
    06:00 +19°C° 0 mm 6 m/s 742 mmHg 84%
    07:00 +20°C° 0 mm 6 m/s 742 mmHg 78%
    08:00 +21°C° 0 mm 7 m/s 742 mmHg 72%
    09:00 +22°C° 0 mm 7 m/s 742 mmHg 69%
    10:00 +23°C° 0 mm 7 m/s 742 mmHg 66%
    11:00 +24°C° 0 mm 7 m/s 743 mmHg 62%
    12:00 +24°C° 0 mm 7 m/s 743 mmHg 62%
    13:00 +26°C° 0 mm 7 m/s 743 mmHg 61%
    14:00 +26°C° 0 mm 7 m/s 743 mmHg 61%
    15:00 +24°C° 0.2 mm 6 m/s 743 mmHg 66%
    16:00 +24°C° 0.2 mm 6 m/s 742 mmHg 70%
    17:00 +25°C° 0.2 mm 5 m/s 742 mmHg 75%
    18:00 +22°C° 0.9 mm 5 m/s 743 mmHg 79%
    19:00 +21°C° 0.9 mm 5 m/s 743 mmHg 83%
    20:00 +19°C° 0.9 mm 4 m/s 743 mmHg 88%
    21:00 +19°C° 0.5 mm 4 m/s 743 mmHg 90%
    22:00 +19°C° 0.5 mm 3 m/s 743 mmHg 92%
    23:00 +18°C° 0.5 mm 3 m/s 743 mmHg 94%

    30 Maio, Quinta-feira

    Tempo Temperatura Precipitação Vento Pressão Humidade
    00:00 +18°C° 0.2 mm 3 m/s 743 mmHg 95%
    01:00 +18°C° 0.2 mm 3 m/s 743 mmHg 95%
    02:00 +18°C° 0.2 mm 3 m/s 743 mmHg 96%
    03:00 +17°C° 0.1 mm 3 m/s 743 mmHg 96%
    04:00 +17°C° 0.1 mm 2 m/s 743 mmHg 97%
    05:00 +17°C° 0.1 mm 2 m/s 743 mmHg 97%
    06:00 +18°C° 0.9 mm 2 m/s 743 mmHg 96%
    07:00 +19°C° 0.9 mm 2 m/s 744 mmHg 95%
    08:00 +19°C° 0.9 mm 2 m/s 744 mmHg 93%
    09:00 +21°C° 1.2 mm 3 m/s 743 mmHg 88%
    10:00 +22°C° 1.2 mm 4 m/s 743 mmHg 83%
    11:00 +23°C° 1.2 mm 4 m/s 743 mmHg 78%
    12:00 +23°C° 1.3 mm 4 m/s 743 mmHg 78%
    13:00 +23°C° 1.3 mm 4 m/s 743 mmHg 79%
    14:00 +23°C° 1.3 mm 4 m/s 743 mmHg 79%
    15:00 +22°C° 1 mm 4 m/s 743 mmHg 83%
    16:00 +21°C° 1 mm 4 m/s 744 mmHg 87%
    17:00 +20°C° 1 mm 4 m/s 744 mmHg 90%
    18:00 +18°C° 0.2 mm 4 m/s 744 mmHg 92%
    19:00 +17°C° 0.2 mm 4 m/s 744 mmHg 94%
    20:00 +14°C° 0.2 mm 4 m/s 745 mmHg 95%
    21:00 +13°C° 0.1 mm 4 m/s 745 mmHg 95%
    22:00 +12°C° 0.1 mm 4 m/s 745 mmHg 95%
    23:00 +10°C° 0.1 mm 4 m/s 746 mmHg 95%

    31 Maio, Sexta-feira

    Tempo Temperatura Precipitação Vento Pressão Humidade
    00:00 +10°C° 0.1 mm 4 m/s 746 mmHg 94%
    01:00 +8°C° 0.1 mm 4 m/s 746 mmHg 94%
    02:00 +7°C° 0.1 mm 4 m/s 747 mmHg 94%
    03:00 +7°C° 0.1 mm 4 m/s 747 mmHg 93%
    04:00 +7°C° 0.1 mm 4 m/s 748 mmHg 93%
    05:00 +7°C° 0.1 mm 4 m/s 748 mmHg 92%
    06:00 +7°C° 0 mm 4 m/s 748 mmHg 88%
    07:00 +8°C° 0 mm 4 m/s 749 mmHg 84%
    08:00 +10°C° 0 mm 3 m/s 749 mmHg 81%
    09:00 +11°C° 0 mm 4 m/s 750 mmHg 72%
    10:00 +13°C° 0 mm 4 m/s 750 mmHg 64%
    11:00 +15°C° 0 mm 4 m/s 750 mmHg 56%
    12:00 +17°C° 0 mm 4 m/s 750 mmHg 54%
    13:00 +17°C° 0 mm 4 m/s 751 mmHg 52%
    14:00 +18°C° 0 mm 4 m/s 751 mmHg 51%
    15:00 +18°C° 0 mm 3 m/s 751 mmHg 53%
    16:00 +18°C° 0 mm 3 m/s 751 mmHg 55%
    17:00 +18°C° 0 mm 3 m/s 751 mmHg 57%
    18:00 +17°C° 0 mm 3 m/s 751 mmHg 63%
    19:00 +14°C° 0 mm 3 m/s 752 mmHg 68%
    20:00 +13°C° 0 mm 2 m/s 752 mmHg 74%
    21:00 +12°C° 0 mm 2 m/s 752 mmHg 75%
    22:00 +10°C° 0 mm 2 m/s 753 mmHg 75%
    23:00 +9°C° 0 mm 2 m/s 753 mmHg 76%
    Mostrar mais